Location: Cheching
(60.0667°N, 164.2167°W)
Time: 12:35:57
(UTC+00:00)

FENGYUN 1C DEB - Pass Details

Date: 26 September 2021
Orbit: 727 x 819 km, 99.4° (Epoch: 17 October)

Event Time Altitude Azimuth Distance (km) Brightness Sun altitude
Exits shadow 12:05:11 48° 70° (ENE) 956 ? -29.5°
Maximum altitude 12:05:26 49° 59° (ENE) 950 ? -29.5°
Drops below altitude 10° 12:10:12 10° 346° (NNW) 2,270 ? -29.3°
Sets 12:12:34 0° 341° (NNW) 3,210 ? -29.2°
